Location: Brabourne
(51.1333°N, 1.0000°E)
Time: 11:00:42
(UTC+00:00)

ADEOS Rocket - Pass Details

Date: 25 October 2021
Orbit: 858 x 1307 km, 98.8° (Epoch: 26 November)

Event Time Altitude Azimuth Distance (km) Brightness Sun altitude
Exits shadow 00:57:40 18° 349° (NNW) 2,589 5.5 -47.9°
Drops below altitude 10° 00:59:08 10° 347° (NNW) 3,102 5.9 -47.8°
Sets 01:01:39 0° 346° (NNW) 4,010 6.6 -47.6°
